Regional Weather Roundup
Issued by NWS

Home | Current Version | Previous Version | Text Only | Print | Product List | Glossary On
Versions: 1 2 3 4 5 6 7 8 9 10 11 12 13 14 15 16 17 18 19 20 21 22 23 24 25 26 27 28 29 30 31 32 33 34 35 36 37 38 39 40 41 42 43 44 45 46 47 48 49 50
000
ASUS45 KABQ 272001
RWRNM
NEW MEXICO REGIONAL WEATHER ROUNDUP
NATIONAL WEATHER SERVICE ALBUQUERQUE NM
200 PM MDT WED MAY 27 2015

NOTE: "FAIR" MEANS FEW OR NO CLOUDS BELOW 12,000 FEET AGL WITH NO
       SIGNIFICANT WEATHER OR OBSTRUCTIONS TO VISION.

      THIS PRODUCT IS RELEASED AS TWO VERSIONS.  ONE VERSION NEAR
      THE TOP OF THE HOUR CONTAINING PRELIMINARY DATA FROM ALBUQUERQUE
      AND OTHER STATIONS.  A FINAL VERSION WITH ADDITIONAL DATA IS
      ISSUED ABOUT 10 MINUTES AFTER THE HOUR.

NMZ501-503-504-510>518-272100-
NORTHWEST PLATEAU/NORTHCENTRAL MOUNTAINS

CITY           SKY/WX    TMP DP  RH WIND       PRES   REMARKS
FARMINGTON     MOSUNNY   78  27  15 S9G16     30.09F
SANTA FE       PTSUNNY   76  35  22 W12G20    30.16F
TAOS           PTSUNNY   72  36  26 W12G21    30.20F

$$
NMZ402-403-502-505>509-272100-
WESTCENTRAL MOUNTAINS/SOUTHWEST MOUNTAINS

CITY           SKY/WX    TMP DP  RH WIND       PRES   REMARKS
GALLUP         CLOUDY    71  25  17 SW14G20   30.17F
SILVER CITY      N/A     81  16   9 S5G21     30.15F

$$
NMZ407-409-411-412-272100-
SOUTHERN DESERTS

CITY           SKY/WX    TMP DP  RH WIND       PRES   REMARKS
DEMING         CLOUDY    85  21   9 VRB6      30.06F
HOLLOMAN AFB   PTSUNNY   88  21   8 S9        30.02F
ALAMOGORDO     PTSUNNY   88  23   9 SW7G22    30.04F
T OR C         CLOUDY    84  20   9 S16G25    30.07F

$$
NMZ519>523-272100-
CENTRAL VALLEYS/CENTRAL HIGHLANDS

CITY           SKY/WX    TMP DP  RH WIND       PRES   REMARKS
ALBUQUERQUE    PTSUNNY   77  33  20 S10G16    30.13F
DOUBLE EAGLE   PTSUNNY   73  37  27 S8        30.17F
CLINES CORNERS CLOUDY    72  26  18 SW12G30   30.22F
BELEN          FAIR      78  31  17 SE10      30.12F
SOCORRO        NOT AVBL

$$
NMZ524>526-539-540-272100-
SOUTHCENTRAL MOUNTAINS

CITY           SKY/WX    TMP DP  RH WIND       PRES   REMARKS
RUIDOSO        NOT AVBL

$$
NMZ527>531-272100-
NORTHEAST HIGHLANDS/NORTHEAST PLAINS

CITY           SKY/WX    TMP DP  RH WIND       PRES   REMARKS
LAS VEGAS      MOSUNNY   70  37  29 S23G29    30.19F
RATON          PTSUNNY   70  39  32 SW15      30.15F
CLAYTON        MOSUNNY   79  48  33 S17G25    30.09F

$$
NMZ532>537-272100-
EASTCENTRAL PLAINS

CITY           SKY/WX    TMP DP  RH WIND       PRES   REMARKS
TUCUMCARI      MOSUNNY   87  42  20 SW18G26   30.04F
CANNON AFB     PTSUNNY   83  49  30 S16G22    30.08F
CLOVIS AIRPORT PTSUNNY   81  55  41 S15G23      N/A

$$
NMZ028-029-538-272100-
SOUTHEAST PLAINS

CITY           SKY/WX    TMP DP  RH WIND       PRES   REMARKS
ROSWELL        PTSUNNY   87  47  24 S7        30.02F
ARTESIA        MOSUNNY   90  46  22 SE14      30.02F
CARLSBAD       MOSUNNY   91  51  25 SE7G18    29.99F
HOBBS          MOSUNNY   86  57  37 SE12G20   30.06F


$$


USA.gov is the U.S. government's official web portal to all federal, state and local government web resources and services.